RH
43 46 47 48 48 48 49 51 53 55 57 60 62 64 65 67 68 69 70 70 71 72 72 73 75 76 77 78 79 81 83 86 89 92 93 95 96 98 99 100 100 100 100 100 100 100 100 100 100 100 100 100 100 100 100 100 100 100 100 100 100 101 100 101 98 88 85 91 94 94 95 95 94 95 94 92 91 89 87 85 83 82 83 87 92
44 46 48 49 51 52 54 56 57 59 62 64 66 67 68 70 71 72 74 76 77 78 79 80 81 81 82 83 85 87 90 93 95 97 98 99 100 100 100 100 100 100 100 100 100 100 100 100 100 100 100 100 100 100 100 100 100 100 100 100 100 100 100 100 100 94 87 91 97 98 98 99 98 99 99 97 96 94 91 89 88 87 87 90 94
48 49 50 51 52 54 55 57 59 61 63 65 67 69 70 72 73 75 78 80 81 83 85 86 87 88 88 90 92 94 96 98 99 100 100 100 100 100 100 100 100 100 100 100 100 100 100 100 100 100 100 100 100 100 100 100 100 100 100 100 100 100 100 100 100 98 93 90 96 100 100 100 100 100 100 99 98 97 95 94 95 94 93 93 95
51 53 54 55 56 57 57 58 60 62 64 65 67 69 70 73 75 77 80 83 85 86 88 89 90 91 93 95 97 98 99 100 100 100 100 100 100 100 100 100 100 100 100 100 100 100 100 100 100 100 100 100 100 100 100 100 100 100 100 100 100 100 100 100 100 100 97 92 94 100 102 100 100 101 101 100 98 98 98 97 98 99 97 96 96
53 56 58 60 62 63 63 63 63 64 65 66 67 68 70 72 75 78 81 84 86 88 89 91 92 94 97 99 100 100 100 100 100 100 100 100 100 100 100 100 100 100 100 100 100 100 100 100 100 100 100 100 100 100 100 100 100 100 100 100 100 100 100 100 100 100 99 96 95 99 102 101 100 100 101 100 99 99 99 99 100 100 100 99 97
54 56 58 62 65 68 70 72 73 73 72 72 72 72 73 75 77 79 81 84 87 89 91 94 96 98 99 100 100 100 100 100 100 100 100 100 100 100 100 100 100 100 100 100 100 100 100 100 100 100 100 100 100 100 100 100 100 100 100 100 100 100 100 100 100 100 100 100 98 99 101 102 101 100 101 101 101 99 99 99 100 100 100 99 97
56 57 59 62 65 68 72 75 78 80 80 81 81 82 83 83 85 86 88 90 92 94 96 98 99 100 100 100 100 100 100 100 100 100 100 100 100 100 100 100 100 99 99 100 99 99 99 100 100 100 101 101 101 101 100 100 100 100 100 100 100 101 101 100 101 101 101 101 100 101 101 102 101 100 100 100 98 97 96 95 96 97 98 98 98
58 60 62 64 67 71 75 77 80 82 85 87 88 90 91 92 93 95 96 97 98 99 100 100 100 100 100 100 100 100 100 100 100 100 100 100 100 100 100 100 99 100 100 100 100 99 99 99 100 101 101 101 101 101 101 100 101 100 100 100 100 99 99 99 99 99 100 100 100 99 99 98 98 97 95 95 94 93 92 92 93 94 96 97 98
62 64 66 68 71 75 78 81 84 86 88 91 93 95 96 98 99 100 100 101 101 100 100 100 101 101 101 101 100 100 100 100 100 100 100 99 100 100 100 100 100 100 100 99 99 99 98 99 100 101 101 101 100 100 100 99 98 97 95 95 95 94 94 94 93 93 93 91 90 90 90 90 90 92 91 91 90 90 90 91 91 92 94 97 99
65 67 70 73 76 79 82 85 87 89 92 94 95 97 98 100 101 101 101 101 101 100 100 100 101 101 101 100 100 100 100 99 99 99 99 100 100 100 100 100 100 100 98 97 96 95 96 97 96 96 96 95 94 93 92 91 90 88 87 86 85 84 82 80 78 77 76 74 73 75 78 79 84 88 88 87 88 88 89 90 91 92 94 96 98
69 72 75 78 79 81 84 87 90 92 94 95 96 97 99 100 100 101 101 100 100 100 100 100 100 100 100 100 99 99 98 98 99 98 98 99 99 99 100 99 97 95 93 91 90 88 88 87 86 85 83 82 81 80 79 78 77 75 72 70 68 65 63 60 60 59 60 60 61 64 68 72 79 85 86 86 87 87 88 89 90 92 94 96 97
73 76 79 80 82 85 88 91 94 95 96 97 97 98 99 100 100 100 100 100 100 100 100 101 100 99 99 99 98 98 98 99 99 98 98 99 98 97 96 93 89 87 84 81 79 76 73 71 70 69 70 70 69 67 65 63 60 57 54 51 50 48 47 47 48 49 50 52 54 58 65 71 79 84 85 85 86 86 87 88 89 92 95 98 99
77 79 82 84 86 89 93 95 96 96 96 97 99 100 100 100 100 100 100 99 99 99 99 99 99 98 99 99 98 98 98 100 99 96 96 97 94 90 87 82 78 75 72 68 66 63 61 59 57 56 57 58 57 53 50 47 45 44 42 41 41 42 42 43 44 45 47 48 50 57 67 75 80 83 85 85 85 86 86 87 91 94 98 100 100
81 83 85 86 89 92 94 95 96 96 97 99 100 100 100 100 100 99 98 97 96 96 96 96 96 98 99 99 99 98 98 98 94 89 90 90 83 77 74 70 66 63 60 58 56 54 53 51 48 45 44 46 45 42 40 39 39 39 40 39 39 40 43 44 43 44 47 50 52 56 66 75 79 81 84 85 85 87 89 92 96 99 100 100 99
83 85 87 89 92 94 95 96 97 98 99 100 100 99 99 99 97 95 94 94 93 92 92 92 94 96 98 98 96 93 91 89 83 79 81 79 70 64 62 58 54 52 50 48 47 44 43 40 37 36 37 39 40 39 39 40 39 40 40 40 39 39 41 44 44 47 52 56 58 60 66 72 76 79 84 86 87 91 95 99 100 101 100 100 99
86 87 89 92 94 95 96 97 98 98 98 98 98 98 97 95 93 92 90 89 87 87 88 90 91 91 91 90 87 84 81 78 74 72 72 67 57 53 50 46 43 42 39 38 36 35 35 33 33 34 38 42 43 43 44 43 43 42 42 42 41 40 40 44 47 51 56 60 62 64 67 70 72 76 81 85 91 96 100 101 101 100 100 100 98
88 90 92 93 95 95 95 96 96 96 96 96 96 95 93 91 88 86 84 83 82 83 83 82 81 78 77 75 74 72 69 65 61 60 56 49 42 39 38 35 35 35 34 33 34 35 36 37 38 40 42 44 44 44 44 44 44 44 44 43 41 40 41 45 51 55 59 62 64 66 67 69 70 73 78 85 93 99 100 101 101 101 101 100 99
91 92 93 93 93 93 93 94 94 94 94 94 93 90 87 84 81 79 78 77 76 73 70 67 64 62 60 58 55 52 49 46 44 42 39 36 34 34 34 34 34 34 34 36 38 41 42 44 45 46 46 46 45 45 44 45 45 45 44 43 43 44 48 53 58 62 64 65 66 67 68 68 69 73 78 85 91 95 97 99 100 100 100 101 100
91 91 91 91 91 92 92 92 92 91 91 89 87 84 80 77 75 72 69 66 61 57 52 49 46 44 41 39 37 34 33 33 34 34 34 35 36 36 36 37 37 38 39 42 45 48 49 49 50 50 50 50 49 48 48 48 48 47 47 48 50 55 58 61 64 66 66 65 66 66 66 67 68 72 78 83 87 90 93 96 97 98 100 101 101
90 89 89 90 91 91 89 88 86 85 84 81 78 74 70 65 61 56 51 47 43 39 36 34 32 30 30 29 30 30 30 31 34 36 37 39 40 40 40 41 42 44 46 49 51 53 55 55 55 55 55 55 55 55 55 55 55 55 55 55 56 60 63 64 66 65 62 62 63 63 64 65 66 70 76 82 85 87 90 92 94 96 99 101 101
87 87 88 89 89 87 84 82 79 75 71 66 61 56 51 46 42 37 34 32 29 27 26 26 26 27 29 30 31 32 33 35 38 40 42 44 44 45 45 46 48 50 52 54 56 59 61 62 62 62 61 61 61 61 62 63 63 63 62 59 58 59 60 64 67 65 60 59 60 62 63 65 66 70 75 80 84 86 87 89 90 92 96 98 100
86 86 87 86 84 80 75 70 63 57 50 45 40 36 33 31 28 27 25 25 24 24 25 26 27 30 32 33 35 37 39 41 44 46 48 49 49 50 51 52 54 56 57 60 62 64 66 67 67 67 66 66 66 67 69 69 68 65 62 59 58 60 61 65 69 67 62 60 60 61 62 65 67 70 74 79 82 84 85 86 88 90 92 96 99
83 83 81 78 72 65 57 49 42 36 32 29 27 26 25 24 23 23 23 23 24 26 27 29 30 32 34 37 39 42 45 48 50 52 53 53 54 55 56 58 60 61 63 65 67 68 68 69 69 69 70 70 72 75 76 72 67 63 61 61 63 65 67 70 71 69 65 62 61 60 62 64 66 70 74 78 81 83 85 86 87 89 91 94 97
76 73 68 60 52 44 36 30 27 25 24 23 23 23 23 23 23 23 24 26 27 28 30 32 34 36 38 41 44 48 51 54 56 57 57 57 58 60 62 64 65 67 69 70 70 69 69 69 68 69 70 71 75 79 79 74 69 67 67 68 69 70 72 74 75 73 69 66 63 62 61 62 64 68 73 77 80 83 84 86 87 89 91 93 94
62 56 48 39 32 27 24 22 22 22 22 22 22 23 23 24 25 25 27 30 31 33 35 37 39 42 44 48 51 54 57 59 61 62 61 62 63 66 68 69 70 73 74 73 71 70 70 70 69 69 70 72 77 81 82 77 74 73 76 78 77 75 76 78 78 77 74 71 68 65 63 62 63 65 70 75 80 82 83 85 87 89 90 90 90
45 37 30 24 21 20 20 21 21 22 22 23 24 25 26 27 28 29 31 33 35 37 39 42 45 49 52 55 58 60 62 64 66 65 66 68 70 71 73 75 77 77 75 72 72 72 72 72 72 72 73 75 80 85 86 83 79 80 84 86 84 81 81 83 83 81 78 75 73 71 67 64 63 65 68 72 77 80 81 82 85 87 87 87 88
29 24 21 19 19 20 21 22 23 24 25 25 26 27 29 31 33 34 35 37 39 41 44 48 52 55 59 61 63 65 68 70 69 70 72 73 74 75 78 80 79 77 75 75 75 75 75 76 76 76 76 78 81 86 89 87 83 85 90 91 89 86 86 86 85 82 79 77 75 73 71 68 67 67 68 72 76 79 79 80 82 84 86 87 89
22 20 19 20 21 22 23 24 25 26 27 28 29 31 33 35 37 39 40 43 44 47 51 55 59 62 65 67 69 71 74 74 73 74 76 75 75 78 81 81 78 76 77 78 77 78 78 78 79 80 81 82 83 86 88 86 86 89 92 91 89 88 87 85 82 80 78 77 75 73 73 72 70 68 68 71 74 76 78 78 80 82 85 87 90
21 21 22 23 24 24 26 27 29 29 30 32 35 37 39 40 42 44 46 49 52 56 59 62 65 68 70 72 75 76 76 75 77 77 76 75 76 79 80 78 77 77 78 78 78 80 80 80 82 84 86 87 86 86 86 85 85 88 91 90 88 87 86 83 81 80 79 77 74 73 73 73 73 70 69 69 71 73 75 77 78 79 82 85 86
23 24 25 26 27 28 30 31 33 34 36 38 40 43 45 46 47 49 51 55 59 63 66 68 71 72 74 77 80 77 75 76 78 78 76 76 79 80 79 78 77 78 79 79 80 81 81 83 85 87 89 89 88 88 88 86 84 86 89 90 88 86 85 84 82 81 79 77 75 74 73 73 73 73 72 70 70 71 73 75 77 78 79 80 79
26 27 28 29 30 32 34 36 38 40 42 45 46 47 48 50 52 54 57 61 66 70 72 73 75 77 80 81 80 78 78 80 80 78 77 79 80 80 79 78 78 78 79 80 80 81 82 85 87 88 88 88 88 88 90 89 86 85 87 88 87 86 85 84 83 81 80 78 76 74 73 73 74 75 75 73 71 70 71 72 73 73 73 71 69
29 30 32 33 34 35 37 40 43 45 48 50 51 50 50 51 54 56 60 66 71 74 76 77 78 81 82 81 80 81 85 85 81 79 79 80 80 81 81 79 79 79 81 82 82 82 82 84 85 86 86 86 86 87 90 89 87 86 86 85 84 84 83 82 82 81 80 78 76 75 74 74 74 75 76 75 74 72 71 69 68 66 65 65 64
32 34 35 36 37 39 41 43 46 49 51 53 53 53 54 55 58 61 65 69 72 74 76 79 81 82 81 79 81 86 88 85 81 79 80 80 80 80 80 80 82 86 87 85 82 79 78 79 81 82 83 83 83 85 87 88 86 85 84 83 82 81 81 80 80 80 77 75 75 75 74 74 74 75 76 76 76 76 72 68 64 61 60 61 62
35 37 40 41 42 43 44 46 49 51 53 54 54 54 55 59 64 69 73 76 76 76 77 80 81 79 78 80 86 90 89 85 82 80 80 80 78 78 80 84 87 89 87 82 77 74 75 76 77 79 81 81 81 82 85 87 86 83 82 82 81 79 79 78 78 78 75 73 73 74 74 74 75 75 76 76 76 76 72 68 64 62 61 63 65
38 41 44 46 47 47 49 50 51 52 53 54 55 55 57 61 66 72 77 80 81 80 80 79 78 77 80 86 91 92 89 85 82 81 80 77 76 79 84 86 85 83 81 79 78 77 77 77 78 80 81 82 81 82 84 86 86 85 83 81 80 79 78 77 77 76 75 74 74 75 76 75 75 75 76 77 77 75 72 70 68 68 68 71 73
41 44 47 49 50 51 53 54 55 55 55 56 57 58 60 63 67 72 76 79 80 80 79 76 74 76 83 89 92 91 89 85 81 79 77 76 77 81 81 79 78 80 83 86 87 86 85 85 85 86 86 85 85 86 86 87 88 88 86 83 82 80 79 78 77 75 74 75 76 77 76 75 75 75 77 78 77 74 72 71 71 73 75 78 79
43 46 48 49 50 51 54 56 57 56 56 58 60 61 63 65 68 71 74 75 76 76 75 74 75 79 85 90 93 92 89 83 78 76 75 75 75 74 73 75 80 87 91 93 94 94 94 95 94 93 92 91 90 89 90 89 90 90 89 88 86 84 83 82 80 77 76 75 76 76 75 75 76 78 78 77 75 72 72 73 75 78 80 80 80
47 48 49 49 50 52 53 55 57 57 58 59 61 63 64 65 67 68 69 70 71 71 71 74 79 86 92 95 94 91 87 81 76 74 72 71 69 70 75 81 87 90 91 92 94 95 96 96 96 96 95 94 93 92 92 91 91 91 90 88 87 86 85 84 82 79 77 76 76 75 75 77 79 79 77 75 72 72 74 77 78 79 79 78 77
49 50 51 51 52 52 52 53 55 56 58 59 62 63 64 64 64 65 66 66 67 68 71 76 83 92 96 95 91 87 84 78 72 68 67 68 71 77 82 86 86 86 87 88 88 89 89 90 89 89 88 88 88 88 86 86 87 87 86 84 83 83 82 81 80 79 77 76 76 76 77 78 79 77 74 72 72 74 76 78 78 78 79 80 81
51 52 53 54 54 53 53 53 53 54 56 59 61 63 64 64 64 65 66 66 66 68 73 81 90 93 92 88 86 83 77 69 64 64 68 74 80 83 85 86 87 89 90 91 91 92 91 90 88 87 85 84 83 82 81 80 79 79 79 77 77 77 77 77 76 75 74 74 75 76 76 75 73 72 71 72 74 76 78 79 81 84 88 90 92
52 53 54 55 55 55 54 54 54 54 56 58 60 63 65 66 67 68 68 67 67 70 78 88 91 88 84 82 80 73 65 61 65 72 78 83 86 88 90 93 95 96 98 99 100 100 99 97 96 93 91 90 88 86 85 82 80 78 76 74 72 71 70 70 70 70 72 73 73 73 71 70 70 71 72 74 77 80 83 87 92 95 98 98 98
49 49 50 51 53 54 56 56 56 56 57 59 62 65 67 68 70 70 68 67 70 75 83 89 87 81 76 73 66 61 63 70 78 83 87 91 94 96 97 99 100 102 103 103 104 103 103 102 100 98 96 94 92 89 86 84 82 79 75 71 68 66 66 66 68 70 71 71 71 70 70 71 72 74 77 81 85 89 94 97 100 100 100 100 100
41 42 43 46 49 52 55 58 58 58 59 61 64 66 69 70 70 68 67 70 76 82 85 85 81 73 66 61 60 67 78 86 90 90 92 95 97 97 98 99 101 103 103 103 103 103 102 100 98 97 95 94 91 89 87 84 81 78 74 71 68 68 68 69 69 70 70 70 71 71 73 75 78 82 87 91 95 98 100 100 101 100 100 99 99
38 39 42 44 47 50 54 56 57 58 60 62 65 68 70 69 68 67 70 75 81 84 84 80 74 66 60 62 70 82 90 93 92 92 92 93 94 95 97 99 100 101 101 101 101 99 98 96 95 95 94 93 92 90 87 85 82 80 77 75 73 72 71 70 70 70 71 72 74 76 80 84 89 93 96 98 99 99 100 100 100 99 99 99 98
38 40 43 46 49 51 53 55 56 58 60 63 66 68 67 66 67 70 74 78 82 82 78 73 68 65 66 72 81 88 92 92 91 89 88 89 91 93 95 97 99 99 99 97 96 95 94 94 94 93 93 93 91 90 88 86 84 82 80 77 75 73 72 72 72 74 76 80 84 88 91 94 96 97 97 97 99 99 99 100 99 99 98 98 98
41 42 44 46 48 51 53 54 55 57 60 62 63 64 65 67 69 73 76 79 79 76 71 70 71 72 73 77 82 87 89 89 87 86 86 89 91 92 94 97 97 96 94 93 92 92 92 92 91 91 91 90 89 88 87 86 85 83 81 80 78 77 77 78 81 84 88 92 94 96 96 96 96 96 96 97 98 98 99 99 99 99 99 98 97
44 44 44 45 47 49 51 53 54 57 59 61 63 65 67 69 71 74 76 77 74 70 70 73 75 74 74 77 82 86 87 87 85 85 87 89 90 91 92 92 92 91 90 90 90 90 90 89 88 88 89 90 90 91 90 89 88 86 85 83 83 83 85 87 91 93 95 95 95 95 95 95 94 95 95 96 97 98 99 99 99 99 98 97 97
44 45 45 45 46 48 50 52 54 57 60 63 65 66 67 69 72 75 75 72 70 70 73 74 74 73 75 78 82 85 86 87 86 86 86 87 87 87 86 85 86 86 87 86 87 87 87 88 88 90 92 94 94 92 90 88 86 85 85 86 87 89 92 93 94 94 94 94 94 94 94 94 94 95 95 97 98 98 99 99 99 98 97 96 96
41 42 43 43 43 46 49 52 56 60 62 64 64 65 67 71 73 72 70 69 70 72 72 72 74 76 77 79 83 86 87 86 84 82 80 80 80 79 79 80 81 82 83 84 85 87 90 92 94 95 94 93 90 87 85 84 84 86 88 90 91 93 93 93 93 93 93 93 93 93 93 94 95 96 96 97 97 98 98 98 97 97 96 95 96
37 39 40 41 43 46 51 55 58 60 60 61 63 66 68 70 69 68 68 69 69 69 70 74 78 79 79 80 82 83 82 79 76 73 72 73 74 75 77 79 80 82 84 87 90 92 93 93 92 89 87 86 85 85 85 87 89 90 91 91 92 92 92 92 92 93 92 92 92 93 93 94 95 95 96 96 97 97 97 96 96 96 95 95 96
35 37 39 42 45 48 51 54 56 57 59 61 63 65 66 66 67 67 67 66 66 69 74 79 81 79 76 75 75 75 74 73 72 72 73 75 76 78 81 83 85 87 89 90 90 89 87 84 83 83 84 86 87 89 90 91 91 91 91 91 92 92 92 92 92 92 92 92 93 93 93 93 94 94 94 95 95 95 95 95 95 95 95 94 94